Theta_e
309 309 309 309 309 309 309 310 309 310 310 310 310 310 310 310 310 310 310 311 311 311 311 311 311 312 312 313 313 313 313 313 314 314 314 315 315 315 315 315 314 313 313 313 313 313 313 313 314 315 315 315 315 316 317 318 316 318 328 325 319 322 322 321 325 319 315 321 317 313 314 314 315 315 313 315 315 314 314 315 315 315 315 315 314 313 314 314
309 309 309 309 309 309 309 309 310 310 310 310 310 310 310 310 310 310 310 310 311 311 311 311 311 312 312 313 312 313 313 314 314 315 315 315 315 314 315 314 314 314 314 314 313 313 313 314 315 315 315 315 315 316 317 318 315 321 326 318 322 332 321 316 320 315 314 317 314 314 314 313 315 314 313 315 314 313 314 315 315 315 314 314 314 313 314 314
309 309 309 309 309 309 309 309 310 310 310 310 310 310 310 310 310 310 311 310 311 311 311 311 311 311 312 312 312 313 313 314 316 316 315 314 314 314 314 314 315 316 315 315 314 313 314 314 315 315 315 315 315 317 317 318 317 317 318 321 331 326 314 313 315 314 315 315 313 314 313 312 314 314 313 313 313 313 314 315 314 314 314 314 314 314 314 314
309 309 309 309 309 309 310 310 310 310 310 310 310 310 310 310 310 310 310 310 310 311 310 311 311 311 312 312 313 314 315 317 317 315 314 313 314 314 314 314 315 316 316 315 314 313 314 314 315 314 315 315 315 316 317 318 317 316 317 326 327 313 313 317 314 315 315 314 314 313 313 313 315 315 313 313 314 315 314 314 314 314 313 313 314 314 314 314
309 309 309 309 309 309 309 309 309 310 310 310 310 310 310 310 310 310 310 310 310 310 311 311 311 312 312 313 314 315 317 320 317 313 313 314 315 314 314 314 315 317 317 314 313 313 314 315 315 314 315 315 315 316 316 317 316 317 318 320 317 311 316 318 315 317 315 314 314 312 314 315 315 314 313 313 314 315 314 314 314 313 313 313 314 313 314 314
309 309 309 309 309 309 309 309 309 309 309 309 310 310 310 310 310 310 310 310 311 311 312 312 313 313 314 315 316 317 318 319 316 313 314 314 314 314 314 314 315 318 317 314 313 313 314 315 315 315 315 314 314 314 314 316 316 318 319 315 314 314 316 317 316 316 314 314 314 313 314 313 313 313 313 312 313 314 313 313 313 313 313 313 313 313 314 314
309 309 309 309 309 309 309 309 309 309 309 309 310 310 310 310 310 311 311 312 312 313 314 314 315 316 317 317 317 317 316 318 318 316 315 314 314 314 314 313 316 319 317 314 313 313 314 315 315 314 314 313 313 313 313 315 315 318 320 315 315 315 314 315 315 314 313 313 313 313 312 311 312 313 313 312 313 312 312 312 312 313 313 313 313 313 314 314
309 309 309 309 309 309 309 309 309 309 310 310 310 311 311 312 312 313 314 315 315 316 316 317 317 317 317 317 317 317 316 318 318 318 317 315 315 315 315 315 317 319 317 314 313 313 314 315 315 313 314 312 312 313 312 313 314 318 320 315 313 313 313 314 313 313 314 313 313 312 310 311 313 312 311 312 312 311 311 312 312 313 313 314 314 314 314 313
309 309 309 309 309 309 309 310 311 311 312 312 313 314 314 315 316 317 317 317 317 317 317 317 318 317 317 317 317 317 318 318 318 318 317 316 316 316 317 317 318 319 316 315 313 313 314 314 314 314 313 312 312 312 311 313 315 315 316 314 312 312 313 313 313 313 313 312 312 311 311 312 311 311 312 312 311 311 312 312 312 313 313 314 314 314 314 313
309 309 310 310 311 312 313 313 314 315 316 316 317 317 317 317 318 318 317 318 318 318 318 318 318 318 318 318 318 318 319 319 318 318 318 318 318 318 319 319 319 319 316 315 314 313 313 313 314 314 313 313 313 312 311 313 314 312 312 312 312 312 312 312 313 313 312 311 312 312 312 311 309 312 314 311 310 311 312 312 312 313 313 313 313 313 313 313
311 313 314 315 315 316 316 317 317 317 318 318 318 318 318 318 318 318 318 319 319 319 318 317 317 317 317 318 318 317 318 318 318 318 318 318 318 318 319 320 320 319 316 315 315 314 313 313 314 314 314 314 313 312 312 312 313 312 311 312 312 311 312 312 312 312 311 312 312 311 311 310 309 312 314 310 310 312 312 313 312 312 313 312 312 313 313 313
316 317 318 318 318 318 318 318 318 318 318 318 319 319 319 318 318 318 318 318 318 317 317 316 316 316 316 318 318 318 317 317 317 317 317 318 318 318 318 318 318 317 316 315 315 315 313 314 314 314 315 314 313 313 313 312 312 312 311 314 315 312 314 312 311 311 310 313 312 311 314 315 314 314 312 310 310 312 312 312 312 312 312 311 312 312 312 312
319 319 319 319 319 319 318 318 318 318 318 318 318 317 317 317 316 316 316 316 316 315 315 315 315 315 317 317 318 317 317 317 318 318 318 318 317 318 318 317 316 315 315 316 316 315 314 314 314 315 315 313 314 313 313 312 311 313 311 312 315 316 318 313 308 310 310 312 311 311 317 325 324 314 310 311 311 312 312 311 311 311 311 311 311 311 311 311
319 319 319 318 318 318 318 317 317 317 316 316 316 315 315 314 314 314 314 314 314 313 313 314 315 316 317 317 317 317 317 317 318 318 318 318 318 318 317 316 316 316 316 316 315 315 314 314 314 315 314 314 313 312 314 314 313 315 311 314 317 315 322 317 308 310 312 312 310 312 318 325 326 313 308 312 312 312 312 310 310 310 310 310 310 310 310 310
318 318 317 317 316 315 315 314 314 314 314 313 313 313 313 313 313 312 313 313 313 313 314 315 316 317 317 317 317 317 317 317 318 318 318 318 318 317 317 317 316 316 316 315 315 315 314 315 315 315 314 314 314 315 319 320 323 321 313 321 323 315 322 321 308 308 313 312 309 312 318 321 320 311 309 312 311 312 311 308 309 309 309 309 309 309 309 309
316 316 315 315 314 313 313 312 312 312 312 312 312 312 312 312 312 312 313 312 313 314 315 317 318 318 318 318 317 317 317 317 318 318 318 318 317 317 317 316 316 315 315 314 314 315 315 316 315 314 313 312 317 324 325 322 325 325 316 320 325 317 319 319 312 308 309 311 309 311 316 319 317 310 309 312 310 312 310 307 307 307 307 307 307 308 307 308
314 314 314 314 313 313 312 312 312 312 312 312 312 312 312 312 312 313 314 314 315 317 317 319 319 318 319 318 317 317 317 317 317 317 317 317 317 317 316 315 315 314 314 314 314 315 315 315 313 314 313 311 315 324 324 320 323 324 317 316 320 318 316 318 318 311 309 312 313 313 313 316 316 310 309 311 310 310 308 305 306 305 306 305 306 307 307 307
313 313 313 313 313 312 312 312 312 312 312 312 312 312 312 313 313 314 316 317 317 318 319 319 318 319 321 318 317 318 317 317 317 317 317 317 317 316 315 315 314 314 313 313 313 314 314 312 313 316 315 312 314 318 320 321 323 325 321 319 319 317 315 317 317 313 312 315 316 315 315 316 316 311 307 308 309 309 306 303 304 304 304 304 305 305 306 307
313 313 313 312 312 312 312 312 312 312 312 312 312 313 313 314 315 316 317 318 318 320 321 320 318 320 322 319 318 318 317 317 316 316 316 316 316 315 314 314 313 313 313 314 314 312 312 312 313 317 317 315 315 315 317 318 318 321 323 324 324 320 319 318 316 313 311 315 316 315 316 317 316 313 308 306 307 306 304 303 303 302 303 303 304 304 305 306
313 313 313 313 312 312 312 312 312 312 312 313 313 315 316 318 319 319 318 318 319 319 320 320 319 319 319 318 318 318 317 317 317 317 316 316 316 315 314 313 313 313 315 320 318 311 311 316 317 318 317 316 315 312 314 317 316 317 319 321 321 319 319 316 316 315 309 313 319 316 317 318 316 314 307 304 306 304 303 303 302 302 302 302 303 303 304 304
314 314 313 313 312 312 312 312 312 312 313 314 315 317 318 319 321 321 319 320 320 319 319 319 319 319 319 319 318 318 318 318 318 317 317 316 315 314 313 313 315 317 316 315 315 311 312 317 319 319 316 315 314 312 313 314 314 315 315 316 317 317 317 313 314 315 310 313 320 316 317 320 317 313 306 304 305 304 302 302 301 301 301 301 302 302 302 303
314 314 314 313 313 312 312 312 313 313 313 314 315 317 318 318 320 320 320 321 321 321 321 320 320 320 320 319 319 319 318 318 318 317 317 316 315 314 313 316 320 321 315 311 314 314 315 318 318 315 312 312 315 314 312 312 312 314 314 314 316 316 317 317 315 314 312 314 321 319 316 318 316 309 304 303 303 302 302 302 301 301 301 301 301 301 301 302
315 315 315 314 313 312 312 313 314 314 315 316 316 317 317 318 319 320 321 322 322 322 321 321 321 320 321 320 320 319 318 318 319 317 316 315 314 314 313 316 320 321 316 315 319 318 319 322 316 311 310 312 316 315 314 313 313 314 315 315 318 317 318 323 319 315 314 313 316 318 315 317 315 308 304 302 301 301 301 301 301 300 301 300 300 301 301 302
317 317 317 315 314 313 313 314 315 316 316 316 317 318 318 320 321 322 322 320 321 321 320 321 321 321 321 320 320 320 318 318 319 318 317 315 314 314 314 315 317 319 317 317 318 319 322 319 310 309 313 314 315 315 315 315 316 318 317 315 318 318 318 322 319 316 318 315 313 314 316 322 320 314 309 303 302 302 301 300 300 300 300 300 300 301 301 302
319 319 318 316 315 314 315 316 316 317 317 318 319 319 320 321 322 322 321 319 321 320 318 319 319 320 320 320 320 320 318 319 319 319 318 315 314 314 314 314 316 319 318 316 316 317 319 314 310 314 316 314 316 318 318 318 319 322 321 318 317 318 319 319 317 316 320 322 315 311 320 330 325 318 312 305 304 303 301 300 300 299 299 300 300 300 301 302
321 321 319 317 315 315 316 318 318 318 318 319 321 321 321 322 322 321 319 321 324 321 318 319 319 319 318 318 318 318 320 319 318 319 318 315 315 315 316 314 314 318 317 315 315 317 317 312 312 317 318 317 317 319 319 318 320 323 321 318 316 315 317 317 316 317 323 324 313 309 318 327 324 318 311 306 307 304 301 300 299 299 300 299 300 300 301 302
322 321 320 318 316 315 317 319 319 320 320 321 322 322 322 322 321 318 318 324 325 321 319 318 317 318 316 316 317 319 323 320 316 317 317 315 314 314 318 317 314 315 312 313 319 319 316 314 314 315 318 319 318 320 320 317 322 325 319 318 319 317 318 319 318 319 321 320 315 315 317 319 321 318 308 305 308 305 302 302 300 299 299 299 299 299 300 301
322 321 320 320 317 316 317 319 321 321 322 323 323 322 323 322 320 318 322 330 326 319 318 317 314 315 315 315 316 317 318 316 316 317 314 314 314 313 318 318 317 317 311 314 325 319 312 316 317 316 316 317 318 320 318 316 322 323 314 315 319 318 320 320 320 319 316 315 320 321 315 316 323 317 306 305 309 307 305 304 301 299 299 299 299 299 300 301
322 321 321 320 319 318 317 318 320 321 323 323 323 323 322 321 319 318 323 328 324 317 317 316 313 313 314 314 314 312 312 312 315 315 312 314 314 313 316 315 314 316 310 312 324 319 311 312 314 316 319 320 319 315 312 316 320 313 309 314 316 315 318 320 321 320 317 317 322 321 316 318 322 318 310 308 311 310 307 304 302 299 299 299 298 299 300 301
323 322 321 320 320 319 318 319 319 321 323 323 323 323 321 319 319 322 325 327 324 317 313 313 313 312 313 315 314 311 310 311 312 313 312 313 313 311 313 312 310 315 314 312 319 317 310 308 309 313 317 316 314 309 306 312 312 307 312 321 320 318 318 319 320 318 318 322 322 320 318 317 320 321 316 312 312 311 308 305 302 300 299 298 298 299 299 300
323 322 320 320 320 320 320 320 320 321 323 323 324 322 320 318 320 327 328 324 324 318 312 313 312 311 314 317 316 312 309 309 310 313 314 312 313 311 312 313 312 318 319 316 318 315 311 311 311 311 311 310 312 311 307 307 307 310 321 325 321 320 318 319 321 318 321 326 319 315 315 313 319 323 317 312 310 308 307 306 303 300 299 298 298 299 299 300
324 322 320 320 320 320 320 321 321 321 322 324 324 321 320 320 323 328 325 321 325 321 315 316 312 312 315 315 316 314 311 311 309 313 315 313 315 314 314 316 317 321 321 318 320 318 316 317 312 310 309 310 318 319 311 310 312 316 323 323 322 323 322 325 324 317 321 323 313 311 313 312 316 319 314 313 310 304 302 303 302 300 299 299 298 298 298 299
325 323 321 320 320 321 321 321 322 321 321 323 322 319 320 324 326 326 322 323 326 320 316 318 314 314 315 313 315 313 312 313 311 312 312 312 316 315 314 315 314 319 321 317 318 319 321 319 312 312 312 310 317 321 317 318 316 316 321 323 325 326 325 329 325 316 317 317 309 308 311 313 316 316 313 312 307 300 299 301 301 300 300 300 299 298 298 298
324 324 322 320 321 321 321 321 321 321 322 322 320 318 320 325 326 325 323 323 323 319 317 317 314 313 314 315 316 313 313 314 312 312 312 312 315 316 316 314 311 317 321 316 317 319 322 323 317 316 315 312 314 317 321 323 317 315 319 319 321 326 325 324 325 320 318 317 312 308 311 319 319 312 306 303 300 297 299 301 301 300 300 300 298 298 298 297
324 324 323 321 321 321 321 321 321 321 322 320 319 320 322 324 324 324 324 321 321 320 318 315 313 313 314 315 316 313 314 315 312 313 314 314 317 318 319 317 313 317 321 318 318 317 319 324 320 312 310 311 313 311 313 320 318 312 312 316 319 322 321 317 317 316 315 316 315 312 314 319 315 306 300 299 298 297 299 300 300 300 299 298 297 297 297 297
325 324 323 321 321 321 321 322 321 321 321 319 320 321 322 323 323 324 323 320 321 320 316 316 317 317 316 316 316 313 313 316 314 313 313 313 315 316 318 318 314 314 317 319 321 318 318 322 318 310 308 309 310 309 308 313 318 313 312 318 317 313 317 319 314 310 310 315 316 314 316 317 312 306 302 300 300 299 298 298 298 299 298 298 297 297 297 297
323 323 322 320 321 321 321 322 322 321 319 319 321 321 319 320 321 322 320 317 318 318 317 320 319 318 319 318 318 316 315 316 315 314 315 314 315 315 318 319 313 311 314 317 320 320 320 322 317 312 313 309 304 307 307 306 312 316 317 317 312 310 316 320 317 316 314 316 316 314 315 316 316 312 305 301 303 301 299 297 297 297 297 297 297 297 297 298
322 322 321 321 322 321 320 321 321 319 318 319 322 321 319 320 317 315 316 315 318 320 321 324 321 319 320 320 320 318 317 317 315 315 317 315 315 316 317 318 313 309 311 311 315 318 318 321 317 310 312 311 305 310 313 307 308 313 315 311 310 316 319 316 317 319 318 317 319 318 315 313 315 315 311 309 309 305 300 298 297 297 296 296 297 297 298 298
322 320 318 320 321 320 320 320 319 318 318 319 322 320 319 320 315 312 313 315 317 320 323 325 322 320 320 321 321 318 317 318 316 316 319 316 316 314 313 316 313 308 309 310 315 318 315 319 319 311 309 311 310 314 318 315 309 308 310 309 311 316 319 317 316 317 318 318 319 319 316 315 316 316 317 317 311 304 301 299 298 297 296 297 298 298 298 298
319 317 316 317 320 320 319 318 316 316 318 319 320 318 317 317 314 312 313 314 316 318 322 324 323 321 320 319 319 318 318 319 316 318 320 317 316 314 311 314 314 310 308 309 314 317 315 317 319 314 310 312 315 316 317 318 315 313 314 314 313 313 314 316 314 314 318 320 320 318 315 317 317 311 314 316 309 302 301 300 299 297 297 298 299 299 299 299
317 315 314 314 317 318 317 315 314 315 317 319 319 317 316 315 313 312 312 313 314 315 318 321 321 321 320 319 318 317 317 319 317 318 318 316 316 315 311 311 313 312 311 312 315 317 317 318 319 316 313 316 320 313 308 312 315 316 317 317 315 314 314 316 314 313 315 316 319 318 315 317 316 306 307 310 305 301 300 299 299 298 298 299 300 300 300 300
316 314 312 312 315 315 314 314 312 313 316 317 316 315 315 313 313 312 312 312 314 313 314 317 318 319 320 319 318 317 317 318 317 317 317 317 318 315 311 308 309 310 314 317 316 313 313 317 319 317 315 316 314 306 301 305 309 312 314 314 315 315 315 317 316 314 314 312 312 314 315 315 311 303 303 304 300 299 299 299 299 298 298 299 300 300 300 300
313 312 311 311 313 313 314 314 312 312 314 313 311 312 312 311 312 313 312 312 314 313 314 315 315 316 317 316 316 317 316 316 317 317 318 319 317 311 307 307 308 309 313 317 315 311 311 315 317 318 317 314 311 306 303 305 307 310 312 312 313 315 315 314 314 315 316 314 313 313 314 314 308 300 298 298 298 298 299 300 300 299 299 299 300 300 301 300
311 309 309 311 312 312 313 314 313 313 311 309 310 311 310 310 311 312 313 313 313 313 314 315 313 313 314 314 315 316 316 316 316 315 316 316 313 307 304 307 309 309 311 314 314 312 313 316 317 317 318 315 313 312 310 309 310 311 312 311 311 313 313 311 310 311 314 315 314 313 314 315 311 302 298 299 298 298 298 299 300 300 299 300 301 301 301 301
310 309 307 309 311 311 311 311 311 313 311 309 310 311 310 310 309 310 312 312 311 312 314 313 311 312 312 312 313 315 315 315 314 313 313 313 310 306 304 306 308 308 309 309 310 311 314 316 316 316 316 315 314 316 315 314 313 312 312 311 310 311 311 312 312 311 312 314 314 313 313 314 311 306 305 304 302 302 300 298 299 300 300 300 301 301 301 301
310 310 308 307 309 310 309 308 309 310 310 309 310 309 310 311 309 308 310 311 310 311 312 311 310 311 312 312 312 313 313 313 313 313 313 313 311 306 304 305 306 307 307 307 307 311 315 315 315 316 316 313 314 315 313 312 313 313 311 311 311 309 308 311 313 312 313 313 313 312 311 312 312 310 309 308 307 308 304 298 298 299 300 300 301 301 301 301
309 310 308 307 308 308 307 307 308 308 308 309 310 308 308 309 309 309 309 309 310 310 309 309 309 310 311 311 310 312 312 312 312 312 313 315 313 307 303 304 305 305 306 306 306 311 315 314 313 315 315 313 313 313 310 309 312 312 310 310 311 308 306 308 310 311 312 312 312 312 310 311 312 310 310 311 311 309 303 298 298 300 301 301 301 301 301 301
308 308 306 307 308 308 307 307 307 306 306 307 308 307 307 308 308 309 309 308 308 309 309 309 309 308 310 311 311 312 312 311 312 312 313 314 312 309 306 305 304 304 306 305 305 310 315 315 312 312 312 311 310 310 310 310 310 309 310 311 311 309 307 307 307 309 310 311 311 310 309 309 309 308 310 311 308 305 303 300 301 302 301 300 300 300 301 301
305 305 304 305 306 306 306 307 306 305 305 306 306 306 307 308 308 308 308 307 307 308 309 310 309 308 309 311 311 312 311 312 312 312 312 312 311 311 311 310 306 303 304 307 306 306 312 315 312 310 311 311 309 307 308 309 308 308 309 309 309 308 307 307 307 307 307 308 308 307 307 307 306 306 308 307 302 301 302 302 301 300 299 300 300 301 301 302
303 304 304 304 304 303 304 307 307 306 305 305 306 307 306 307 308 307 306 307 308 308 308 310 309 308 310 310 309 310 311 311 312 313 312 312 310 310 312 312 309 304 303 307 307 305 308 312 310 309 311 311 307 305 305 306 307 308 308 308 306 305 305 304 305 304 305 305 306 305 305 307 304 302 303 303 301 301 302 301 301 301 301 301 301 301 301 301
303 304 303 304 304 303 303 305 306 306 306 306 306 307 306 306 307 306 305 306 308 308 307 308 308 308 309 309 308 309 309 310 311 311 311 312 310 309 310 310 309 308 306 306 307 307 307 308 307 308 310 309 306 304 304 303 303 304 306 306 305 304 304 304 302 303 304 305 305 305 305 306 303 299 299 300 299 298 299 300 301 301 302 302 302 301 300 299
302 302 302 303 305 304 303 305 305 306 307 307 306 306 307 307 306 306 307 306 306 307 307 307 308 308 308 309 309 308 308 308 309 309 308 309 308 307 308 307 307 309 309 306 305 307 307 307 308 308 309 308 304 303 303 302 303 305 305 305 305 304 304 303 301 301 302 303 304 304 304 304 301 298 299 299 297 295 296 299 299 300 300 301 300 300 299 298
Wind_Speed
7 7 6 6 6 6 6 5 5 5 5 5 5 5 5 5 5 5 6 6 7 8 9 10 10 10 11 12 13 14 15 16 17 18 18 16 15 13 7 3 3 3 2 2 1 2 3 3 3 2 2 1 2 1 2 2 2 2 3 3 1 2 3 5 6 6 3 3 5 6 9 5 6 10 9 8 10 11 13 14 13 12 10 9 11 14 17 17
8 7 7 7 7 7 7 7 7 7 7 7 6 7 7 7 7 7 8 9 9 10 10 11 11 11 12 13 14 15 17 18 19 18 17 14 9 3 4 5 3 1 2 3 2 2 3 2 3 2 1 1 1 1 1 1 3 3 3 2 3 5 5 5 7 6 3 4 8 10 9 4 7 10 10 6 7 9 12 15 14 11 9 11 16 18 18 15
9 9 9 9 8 8 8 8 8 8 8 8 9 8 8 9 9 9 10 11 11 11 12 12 12 13 13 14 15 17 18 19 18 14 8 3 4 8 8 5 3 4 5 5 5 4 4 3 3 3 2 1 1 0 1 1 1 2 3 1 5 6 4 6 7 7 6 8 10 10 8 7 11 11 8 6 7 8 8 12 11 11 15 20 22 17 14 12
11 10 10 10 10 10 10 10 10 10 10 10 10 10 11 11 11 11 11 12 12 13 13 13 13 14 14 15 16 16 17 17 12 3 4 8 10 9 5 2 5 7 7 6 6 5 5 5 5 4 2 0 1 0 1 0 1 2 4 3 5 3 1 6 6 6 8 7 7 9 9 11 15 11 8 6 7 7 10 11 9 12 21 24 19 13 12 10
12 12 12 11 11 11 11 11 11 11 12 12 12 12 12 12 12 12 12 13 13 13 14 14 14 15 15 16 15 14 12 8 2 5 8 9 7 4 1 4 7 9 9 7 5 6 6 6 5 3 1 1 1 1 1 2 3 2 4 5 4 4 2 6 6 7 8 6 7 8 8 12 14 13 12 7 5 9 12 14 14 18 20 17 13 11 9 8
14 13 13 12 12 12 12 12 12 12 12 13 13 13 13 13 13 13 13 13 14 14 14 15 15 15 15 15 13 12 6 2 1 3 6 7 6 6 6 7 8 10 10 7 5 6 7 7 4 3 1 1 1 1 1 3 4 2 3 5 5 5 5 9 10 10 10 7 8 7 9 12 13 15 16 13 14 15 17 18 17 15 11 10 9 8 7 8
15 15 14 14 13 13 13 13 13 13 13 13 13 14 14 14 14 14 14 14 14 15 15 15 15 15 14 13 12 10 8 9 7 6 8 9 10 11 11 10 10 11 9 7 5 6 7 7 6 3 2 1 1 3 1 2 5 3 3 4 5 6 8 11 12 13 13 12 14 12 12 14 12 11 14 19 20 16 14 11 8 7 6 6 6 6 7 8
16 16 15 15 14 14 14 14 14 14 14 14 14 14 14 14 14 14 14 14 15 14 14 14 13 13 12 11 10 9 11 13 10 9 11 12 13 14 14 13 12 11 8 6 5 6 6 7 8 5 2 1 2 3 1 1 2 4 4 4 3 7 10 13 16 18 18 16 16 13 12 17 17 11 13 22 19 9 5 4 4 2 3 4 6 8 9 8
17 16 16 15 15 15 15 15 15 15 15 14 15 15 15 15 14 14 14 14 14 13 13 12 12 12 11 10 9 7 12 13 10 10 11 12 14 15 15 15 13 11 8 6 5 6 7 7 9 8 3 2 3 2 2 1 3 4 4 4 5 10 14 16 18 19 16 13 13 9 11 17 14 8 9 12 7 7 4 4 4 1 3 5 8 9 9 9
17 16 16 16 15 15 15 15 15 15 15 15 15 15 15 14 14 13 13 13 13 13 13 12 12 12 11 11 7 5 10 11 8 9 9 10 12 13 14 13 12 10 8 7 5 6 7 7 7 8 5 3 3 3 3 3 2 2 2 6 8 13 16 16 18 20 16 13 13 9 10 12 4 2 3 4 9 6 3 5 4 4 6 6 6 6 7 8
16 16 16 16 15 15 15 15 15 15 14 15 14 14 14 14 14 13 13 13 13 13 13 13 13 13 12 11 9 9 10 10 8 8 9 9 10 10 10 10 10 9 8 7 5 5 7 8 6 5 5 2 3 2 3 4 2 3 5 7 10 11 15 15 16 20 11 7 9 7 7 6 1 3 1 6 9 6 5 6 6 6 6 5 3 3 4 5
16 17 17 16 16 16 15 15 15 15 15 15 15 15 14 14 14 14 14 13 13 13 13 13 13 13 12 13 16 17 15 14 13 13 13 13 12 11 10 9 9 9 8 6 5 6 7 9 8 6 4 3 2 0 2 2 2 4 5 5 9 9 11 11 8 8 2 2 4 2 4 5 3 6 2 9 9 7 7 7 6 6 5 4 3 2 2 4
17 17 17 17 16 16 16 16 15 15 15 15 15 15 15 14 14 13 14 13 13 13 13 13 13 13 12 13 18 17 15 15 15 15 15 15 14 12 11 10 9 9 8 8 8 8 8 9 9 8 5 3 2 1 1 1 2 4 3 2 6 7 7 5 1 1 2 2 3 4 3 6 6 6 3 11 10 7 9 9 7 6 5 4 3 2 2 3
17 18 17 17 17 16 16 16 16 16 16 16 15 15 14 14 13 13 13 13 13 13 13 12 12 12 11 13 16 16 15 15 14 14 14 14 12 10 10 10 10 10 10 10 9 8 8 8 9 8 5 3 2 2 1 4 3 2 2 2 3 2 5 5 1 2 1 1 5 6 2 6 8 4 9 14 12 9 9 9 7 6 6 4 4 3 3 4
18 18 18 17 17 17 17 16 16 16 16 16 15 14 14 13 13 13 12 13 13 12 12 12 11 10 10 14 15 14 15 15 16 16 15 14 12 10 10 10 11 11 10 10 8 7 6 7 8 5 3 3 2 2 2 4 3 2 1 3 3 1 5 9 5 2 2 1 3 5 2 6 9 3 12 16 12 9 9 10 7 7 6 5 4 4 4 5
19 19 18 18 17 17 17 17 17 17 16 15 14 13 13 12 12 12 12 13 12 12 12 10 10 8 7 11 13 12 13 13 13 14 14 14 13 10 9 8 9 10 9 8 7 7 7 6 5 3 2 3 3 3 3 4 4 3 0 4 3 2 3 6 4 1 1 1 3 2 1 4 6 3 15 16 11 9 10 10 8 7 6 6 5 5 6 5
19 19 19 18 18 17 17 17 17 16 15 14 13 13 12 12 12 12 12 12 12 12 11 9 8 7 9 12 12 12 13 12 12 11 11 12 12 10 8 7 8 9 8 7 7 7 7 6 4 3 1 2 3 5 3 2 4 3 0 3 4 3 2 3 4 4 5 3 2 3 1 6 9 6 18 17 9 8 11 10 8 8 7 8 7 7 7 6
20 20 19 19 18 17 16 16 16 16 15 13 12 12 12 11 11 12 12 12 12 10 10 10 7 3 8 13 11 11 10 10 11 10 9 9 10 8 8 7 8 8 6 5 6 6 6 4 3 1 2 3 2 5 3 5 5 4 2 2 3 3 3 4 5 3 5 4 2 2 2 9 11 7 17 15 8 8 12 11 9 9 9 9 9 9 9 9
20 20 19 18 17 16 16 16 16 15 14 13 11 10 11 11 11 12 13 13 12 7 6 9 10 4 4 6 7 8 8 7 9 9 9 9 9 9 8 7 7 9 8 5 4 5 5 3 4 2 1 2 4 7 9 7 5 5 5 4 3 4 5 5 5 4 2 3 5 4 5 9 9 5 10 10 9 12 12 11 10 10 10 11 11 11 11 11
20 19 18 17 16 16 16 16 15 15 13 11 10 9 9 8 6 8 11 15 17 15 13 12 12 12 9 7 6 6 6 7 8 9 9 9 10 10 9 8 8 7 4 4 3 3 4 3 2 5 6 8 9 9 6 3 4 4 4 3 3 4 5 4 4 5 1 1 6 4 4 8 7 3 7 6 8 12 11 10 11 11 11 11 12 12 12 12
19 19 18 16 16 16 16 16 15 14 12 10 10 9 7 6 3 4 6 11 16 19 20 20 19 19 17 12 7 6 7 7 7 9 9 10 11 10 9 8 6 3 1 3 4 2 4 4 6 9 9 8 7 7 5 2 3 3 3 2 3 4 6 5 3 5 1 2 4 1 3 9 5 3 6 6 6 8 7 8 9 10 11 12 12 13 12 12
19 19 17 16 16 15 16 16 15 14 12 11 11 11 10 9 8 9 8 9 15 19 19 21 23 25 25 21 16 12 8 7 8 10 11 13 14 11 9 7 4 3 1 4 4 2 1 4 10 11 6 4 2 5 7 5 4 2 2 1 4 3 4 5 3 5 3 1 4 3 3 8 3 4 6 8 7 7 7 8 8 10 12 12 13 13 13 13
19 18 17 16 16 16 16 16 15 15 13 12 12 12 12 11 10 10 9 7 13 19 20 21 24 27 28 26 23 20 15 11 11 13 14 16 17 13 10 8 4 3 2 3 5 3 2 6 10 8 7 6 1 3 6 4 2 3 3 3 4 3 1 3 3 4 3 1 2 3 4 6 2 3 5 7 8 10 10 9 10 10 11 12 12 13 14 15
18 18 17 16 16 16 16 16 16 15 14 13 13 12 11 10 8 8 7 5 8 12 16 20 21 25 27 24 21 20 20 17 13 13 17 19 18 12 9 8 5 3 3 6 7 6 6 6 2 4 6 7 3 3 6 5 2 3 5 6 5 3 5 6 3 4 3 2 1 3 4 6 4 2 2 5 6 8 8 9 10 10 11 11 12 14 15 16
18 18 17 17 17 16 16 17 18 16 15 14 13 11 9 7 5 4 4 3 5 6 9 14 15 18 20 19 17 17 15 16 14 12 16 22 20 11 6 7 6 4 5 5 5 5 8 7 3 4 4 5 6 3 5 7 3 4 5 9 9 7 6 5 3 4 4 4 3 3 3 5 4 2 3 3 3 4 5 7 8 8 9 11 13 14 15 17
20 19 18 18 18 17 17 17 17 16 15 15 13 10 9 7 4 3 0 2 4 4 3 8 9 8 12 13 14 13 5 7 13 14 16 22 21 12 5 4 3 3 5 5 3 3 4 3 3 3 4 6 5 3 5 6 5 2 4 8 9 6 5 3 2 2 1 2 2 3 1 5 5 2 3 3 3 3 3 4 5 6 9 11 13 14 15 17
21 20 19 19 18 19 19 16 16 16 15 14 12 10 9 8 6 2 2 3 5 5 6 6 7 7 9 10 15 13 2 3 9 12 18 22 20 13 6 4 2 2 4 5 1 2 1 2 1 3 5 5 5 4 6 7 7 3 4 4 6 6 7 5 5 4 2 2 3 2 2 4 5 3 1 3 4 2 1 1 2 5 8 10 12 13 15 17
23 21 20 20 20 22 21 18 16 16 15 12 10 11 10 10 9 4 3 3 3 5 5 5 7 8 10 15 17 11 3 6 7 7 16 19 17 10 5 6 6 4 3 6 3 3 1 1 2 5 4 4 6 4 7 9 5 4 3 5 6 6 6 5 6 3 0 2 4 4 1 2 6 3 1 2 2 2 3 3 4 6 9 10 12 13 15 17
24 23 22 21 21 22 22 21 19 17 15 11 9 12 13 12 8 5 2 4 2 4 3 6 8 7 11 15 11 5 5 4 2 6 13 15 13 6 3 6 8 6 2 3 4 3 1 2 4 6 5 5 5 2 4 7 3 3 5 6 5 5 5 4 5 3 2 1 4 6 4 2 5 4 1 1 3 4 5 4 6 9 10 10 12 14 15 17
28 26 24 23 24 25 24 26 25 19 15 13 13 15 16 12 7 3 3 5 2 3 4 7 7 7 12 11 3 1 3 1 4 10 9 8 9 5 5 5 6 6 1 3 1 3 0 1 2 3 4 5 5 2 2 3 4 7 6 5 6 5 5 4 2 3 2 3 5 6 6 4 4 5 3 3 3 5 7 5 6 9 12 13 13 15 17 18
30 28 27 27 29 28 27 29 27 21 18 15 15 18 16 7 3 4 7 2 2 2 5 4 3 6 10 7 3 3 2 2 5 9 5 3 5 4 5 5 3 4 2 4 2 4 3 1 2 3 6 7 7 4 4 4 4 5 3 4 3 3 4 4 4 3 1 5 4 2 1 2 4 5 4 5 4 5 8 8 9 12 15 17 16 17 18 18
32 31 29 30 31 29 30 30 24 21 21 16 18 22 15 3 3 5 4 2 1 3 4 4 3 5 6 4 3 4 3 2 3 5 4 3 4 4 3 4 4 3 2 4 2 3 2 4 2 1 5 6 5 5 4 4 4 4 4 5 3 3 4 3 3 0 2 5 3 1 1 1 6 6 4 6 5 4 5 7 12 18 21 21 20 19 19 19
31 32 32 31 32 32 32 29 24 23 24 20 22 21 9 2 6 6 5 2 2 2 3 4 3 4 7 5 2 4 3 2 4 3 2 3 3 4 2 2 5 3 1 4 2 1 2 5 1 2 3 6 7 5 3 1 2 4 4 4 3 2 3 2 3 2 4 4 2 2 1 2 4 4 3 5 4 4 6 8 13 23 27 26 23 21 20 20
28 29 32 32 33 33 30 28 27 25 26 26 21 10 3 5 5 4 8 6 1 1 3 4 5 5 6 4 3 5 3 2 5 5 2 3 3 4 4 4 4 3 3 3 2 3 2 4 3 4 2 6 8 5 5 5 4 4 4 5 5 4 3 3 3 3 4 4 3 2 1 3 3 2 3 5 5 4 4 7 13 21 25 25 23 22 21 21
27 28 32 33 33 33 31 31 30 27 29 29 15 4 6 7 2 2 7 5 1 1 3 4 6 6 3 2 2 5 4 3 4 5 3 4 4 4 5 5 6 4 4 3 2 2 3 4 5 2 1 4 4 2 5 7 2 2 3 4 3 4 4 2 2 4 2 3 3 2 3 4 3 1 2 3 2 2 2 9 16 20 22 24 24 23 23 22
31 33 35 36 36 35 33 34 34 33 34 25 9 5 9 5 1 3 3 3 3 5 6 3 3 4 3 2 2 5 3 2 5 4 2 3 3 4 4 4 7 8 5 5 3 2 3 4 4 2 1 2 1 1 3 3 3 2 2 3 4 4 6 3 1 1 4 1 4 1 3 4 1 1 3 3 2 3 4 10 17 21 23 24 25 25 25 23
36 37 36 37 38 36 36 36 36 38 35 21 7 7 6 2 3 3 1 1 3 5 8 4 2 4 5 3 3 6 3 2 3 3 3 3 3 4 4 3 6 12 10 4 2 3 3 2 3 1 1 2 2 4 5 4 3 4 3 5 3 2 4 4 1 3 3 3 4 1 3 4 1 2 3 2 0 1 3 7 12 18 21 24 26 27 25 24
37 36 35 39 39 37 38 38 36 37 29 13 8 10 4 3 4 2 1 1 3 3 4 4 3 3 5 5 4 5 5 4 4 4 4 3 2 4 6 3 4 10 10 2 1 1 3 1 4 1 1 2 2 4 4 5 4 5 4 2 3 2 1 2 2 2 2 3 4 3 3 3 4 4 2 3 7 7 6 6 9 15 22 26 27 28 27 26
37 31 26 35 39 38 39 36 34 34 20 6 9 10 3 3 4 3 4 3 2 3 3 4 2 1 3 5 4 4 5 5 6 5 3 3 3 3 5 3 3 4 5 3 3 1 3 2 3 2 0 1 2 2 3 1 3 4 3 2 2 2 4 2 2 2 3 3 4 5 5 4 5 5 6 9 10 10 10 9 10 17 24 28 29 30 30 29
33 19 10 23 34 35 34 28 26 24 10 3 7 5 0 2 4 5 7 4 1 2 3 4 3 3 3 3 2 3 3 4 7 5 2 3 3 3 3 2 4 2 1 4 3 0 2 2 2 2 3 1 2 2 5 6 3 3 2 0 0 1 1 1 1 2 3 3 2 4 7 6 4 3 6 8 7 10 13 12 13 20 27 30 33 34 33 31
25 10 3 16 24 26 26 19 14 10 3 3 4 1 1 2 3 6 7 4 1 1 2 3 3 4 4 2 2 3 2 3 5 4 2 4 3 2 2 2 5 5 4 4 2 1 1 2 3 1 0 3 4 3 3 5 4 4 5 5 5 3 2 1 4 1 2 2 4 3 7 8 4 2 4 4 4 9 14 14 14 23 32 35 37 37 34 31
18 5 3 12 18 22 22 11 3 3 3 4 2 1 2 2 3 4 5 4 2 1 2 2 2 2 4 3 2 3 3 2 3 3 2 4 3 2 2 3 4 6 5 3 2 2 2 3 2 2 3 5 5 3 1 2 1 3 3 3 3 4 4 5 7 3 2 1 1 2 4 6 2 2 3 4 5 8 13 14 14 20 28 33 35 34 32 30
16 6 4 12 18 23 19 5 1 2 1 2 3 2 1 1 2 3 4 3 1 2 2 1 0 1 1 2 3 3 3 2 3 3 3 3 3 1 2 4 5 4 4 2 2 2 2 3 1 2 2 2 4 3 2 2 3 1 2 1 3 3 3 4 5 2 2 3 1 1 5 5 1 1 2 3 5 6 12 17 17 19 24 30 33 33 32 31
14 7 5 13 20 20 12 3 2 5 2 2 3 1 1 0 0 2 3 3 2 2 2 1 1 1 1 1 3 3 4 2 2 3 2 3 2 1 2 4 4 3 2 1 3 5 3 1 2 1 3 4 4 3 2 3 2 2 2 1 2 2 4 2 1 2 2 5 6 3 7 6 2 1 2 1 3 5 11 19 22 23 27 32 35 35 33 32
10 5 5 14 19 15 7 2 3 3 3 3 2 1 1 1 1 1 2 2 3 3 3 1 1 2 2 2 2 2 2 1 1 2 1 1 1 1 2 2 2 2 1 2 5 7 5 2 3 4 4 6 4 3 3 2 1 2 2 3 4 5 7 4 1 2 5 4 7 6 9 5 2 2 2 2 3 4 8 15 20 23 26 32 37 37 35 33
7 2 3 8 11 9 6 3 4 3 2 3 2 2 3 1 1 1 2 1 1 4 4 2 2 3 1 1 2 1 1 1 1 2 2 2 1 1 3 3 2 2 3 4 5 5 3 1 3 6 7 8 6 6 5 3 3 3 3 4 6 6 7 5 2 4 5 3 4 9 6 1 4 5 2 2 3 4 7 12 19 23 25 31 36 36 34 32
4 2 3 5 4 5 4 4 5 4 2 4 3 2 5 5 1 0 2 2 3 5 4 1 3 3 2 4 3 2 3 1 1 2 2 2 2 1 2 3 3 3 4 5 4 4 4 2 5 7 8 7 4 5 4 4 4 5 3 5 7 5 5 5 6 6 4 3 8 9 4 3 9 9 4 5 6 5 7 13 19 24 27 32 35 33 30 30
3 1 5 6 3 3 3 4 7 5 2 3 2 1 4 7 5 3 3 1 3 7 5 2 7 8 5 6 5 2 4 4 4 4 3 1 1 1 2 2 2 2 3 3 2 4 4 4 5 5 6 5 3 4 4 4 3 4 5 9 10 7 8 9 11 10 7 8 11 5 4 6 10 6 3 7 9 8 11 15 18 20 23 26 28 27 27 27
4 2 4 6 3 2 4 7 9 8 4 4 2 2 4 7 7 4 3 3 1 5 7 3 6 10 8 6 5 4 5 5 4 3 3 2 2 2 1 1 1 1 2 2 1 2 3 3 3 4 5 5 3 3 4 5 3 4 7 13 13 9 9 11 13 12 9 10 10 3 2 9 9 4 4 5 5 7 10 13 14 16 18 19 20 22 23 23
7 4 5 6 2 1 4 7 9 7 5 5 4 4 4 5 6 4 3 5 3 2 6 7 5 7 9 8 8 8 8 7 4 3 5 4 2 2 2 2 2 1 1 1 0 0 2 2 1 4 3 5 2 3 4 4 4 4 10 16 10 4 6 10 10 5 2 6 8 4 7 13 6 6 5 6 7 8 11 14 15 15 17 19 20 22 22 20
11 8 7 6 2 3 4 4 6 4 3 4 5 4 5 6 8 6 2 8 10 5 7 11 7 5 6 8 12 14 11 10 9 9 11 10 7 7 7 5 7 5 2 2 1 1 3 1 2 4 3 5 2 5 5 3 1 4 15 20 11 6 8 9 5 5 7 8 7 6 9 11 3 6 4 9 12 12 15 18 19 19 20 22 24 24 23 20
15 11 10 6 2 5 5 2 3 4 4 6 7 6 5 6 8 9 3 8 15 14 13 14 10 5 5 9 14 16 12 12 12 11 11 12 9 9 10 10 12 10 5 4 2 1 4 3 2 3 4 4 3 6 6 5 1 7 13 14 11 11 13 7 3 7 11 8 6 8 10 7 1 3 4 7 9 11 15 19 21 23 23 23 25 25 24 22
Wind_Direction
229 228 228 230 231 233 235 237 239 242 245 246 250 251 256 260 262 267 267 270 272 276 280 282 286 289 294 299 303 306 308 308 307 306 304 302 298 294 284 236 189 203 240 281 291 271 266 246 229 247 271 303 352 35 56 45 73 52 86 91 295 200 200 187 183 194 175 275 291 330 343 332 300 319 328 316 300 299 300 295 295 292 293 311 318 320 320 322
236 236 235 237 237 239 240 241 242 245 248 250 252 254 257 259 263 266 266 268 269 272 275 278 282 287 293 298 302 304 306 307 306 305 302 298 291 262 146 126 111 284 294 292 285 277 255 228 221 239 265 257 8 50 93 64 78 75 107 105 237 202 209 198 189 204 199 286 293 310 321 298 286 308 322 315 297 312 310 304 308 308 316 328 325 325 324 325
240 239 238 239 240 241 242 243 244 246 248 249 252 255 257 258 262 264 267 270 270 273 276 279 283 288 293 296 300 304 308 309 308 307 298 267 145 130 123 102 38 352 325 296 279 274 248 220 213 229 251 239 27 96 121 89 96 87 104 136 244 215 229 237 223 230 251 285 297 309 312 294 298 306 307 299 304 306 290 296 309 313 321 324 327 333 329 328
241 241 241 240 241 242 243 244 246 248 249 251 254 257 259 261 264 267 270 273 275 278 280 283 286 289 291 294 300 304 312 315 311 300 153 140 133 132 122 41 357 349 335 308 276 263 243 222 220 237 251 282 19 100 174 157 165 153 143 185 225 181 240 259 255 273 281 289 289 299 311 304 309 311 294 305 326 298 285 304 316 314 317 320 328 340 337 341
241 243 243 243 244 245 246 247 249 250 252 255 257 260 262 264 267 270 273 276 277 280 282 284 285 288 291 294 299 302 318 333 337 142 151 155 155 167 229 320 335 339 333 316 272 248 235 222 227 238 236 322 23 76 245 200 154 170 207 231 217 163 234 282 292 306 302 302 289 294 305 300 309 307 292 294 286 274 296 313 313 310 313 319 332 345 350 359
242 244 245 246 248 250 251 252 253 255 257 259 261 263 266 268 270 272 273 276 277 279 281 283 285 288 290 293 296 298 303 300 208 166 186 202 217 245 272 294 319 324 321 316 272 241 231 224 230 218 155 22 237 190 202 178 171 205 258 260 249 215 242 284 297 303 301 297 289 290 293 296 307 303 298 286 267 278 299 305 305 312 321 328 338 351 0 5
243 245 247 248 249 252 254 255 257 258 260 262 264 266 267 269 271 272 274 276 276 278 281 283 285 286 288 291 292 290 271 258 265 254 239 239 249 262 272 284 303 307 305 311 276 236 229 226 219 195 135 47 235 208 155 177 183 184 272 283 279 255 253 280 296 299 294 289 288 290 288 289 289 293 303 290 285 302 310 310 320 329 341 336 346 6 9 6
244 245 246 248 249 250 252 254 257 259 261 262 265 266 268 270 271 273 275 276 276 278 279 279 281 281 285 287 287 284 268 266 271 261 250 246 252 263 270 278 290 292 288 297 280 233 231 229 218 208 170 191 215 205 169 241 207 176 236 280 292 273 275 291 297 296 294 291 292 291 276 278 280 278 288 287 297 342 0 9 28 357 349 356 3 9 6 2
243 245 246 247 248 250 251 253 256 258 261 263 265 267 268 270 270 272 272 273 274 274 275 275 276 278 280 280 281 281 271 271 272 262 252 245 249 258 266 274 276 274 272 279 274 239 233 229 224 222 225 227 205 206 150 164 256 200 221 277 294 292 297 301 298 295 296 295 294 287 275 282 289 280 277 292 339 42 38 42 62 48 21 14 4 356 348 346
242 244 246 248 248 251 253 254 257 258 260 262 264 265 266 267 267 269 269 270 271 272 275 274 275 276 275 274 265 259 271 271 267 260 252 248 251 255 261 266 264 260 261 265 267 255 242 236 235 227 236 244 180 182 157 158 257 254 280 291 286 292 297 297 292 290 291 291 281 257 269 285 295 252 264 27 46 40 20 58 69 31 21 22 8 345 336 335
241 244 246 248 248 250 252 253 255 257 259 260 261 263 264 266 268 268 269 271 272 274 276 276 278 276 275 272 243 235 267 270 264 262 256 255 255 257 259 256 253 250 250 255 261 272 256 241 232 214 223 215 162 200 214 214 275 321 330 306 293 304 301 289 281 284 286 288 271 229 258 287 176 208 213 49 39 36 48 57 40 21 26 35 23 355 337 331
245 246 246 248 248 249 251 252 254 256 258 259 261 263 264 266 268 270 271 272 272 273 274 275 277 275 276 270 252 254 270 271 268 269 263 262 262 262 261 253 248 241 239 251 262 271 260 239 226 216 218 176 153 240 225 233 304 317 350 321 304 336 320 289 274 279 247 245 265 186 284 302 209 221 101 51 33 31 35 42 39 39 51 58 53 26 352 339
249 250 250 251 252 252 252 253 255 256 257 258 261 262 264 266 267 268 269 270 271 271 273 273 273 276 274 267 264 268 272 267 267 267 264 264 265 262 255 248 241 234 240 257 265 261 248 235 226 223 224 186 171 176 209 352 350 301 7 18 313 350 326 293 108 186 161 247 220 141 285 284 259 246 55 29 10 11 27 49 60 68 78 76 71 38 16 7
249 250 251 252 254 255 254 254 255 255 256 257 259 260 262 264 264 266 267 268 269 269 270 270 271 273 265 262 271 273 266 262 261 260 261 262 260 253 244 239 239 243 253 258 257 251 237 226 219 218 218 205 191 169 320 357 19 306 348 25 343 351 280 295 348 205 136 291 193 152 208 262 275 319 34 12 2 15 42 67 71 78 82 78 74 55 41 37
246 248 249 250 253 254 254 253 253 253 254 255 256 258 259 261 262 263 263 264 265 266 267 269 271 271 267 267 270 268 262 259 257 255 256 256 253 245 238 237 240 245 248 245 238 228 215 206 204 201 191 192 178 126 359 350 9 14 331 307 333 174 267 310 326 195 154 330 146 143 188 269 273 351 31 13 11 27 67 85 78 80 79 76 74 64 60 57
243 244 245 246 246 248 249 250 250 250 251 253 255 256 258 260 260 260 262 262 263 264 265 269 269 264 268 274 268 262 260 256 254 252 248 249 247 242 239 234 233 234 232 227 218 204 191 186 183 168 158 162 129 94 43 355 337 357 153 253 273 214 278 322 333 28 100 118 72 96 199 287 273 30 25 18 24 39 81 90 76 81 79 79 80 80 87 86
240 241 242 241 240 241 243 244 247 248 249 251 252 255 258 258 259 261 260 260 261 261 264 263 265 267 262 263 263 258 259 255 250 247 241 239 238 236 228 216 216 219 216 207 202 194 187 179 167 165 113 88 103 95 58 319 280 305 19 227 250 218 228 301 309 359 39 80 36 358 194 261 266 355 15 20 36 53 84 88 79 84 80 84 86 90 95 92
236 237 238 237 237 236 237 239 242 245 247 247 249 253 256 258 261 262 260 259 258 262 267 248 232 284 266 249 250 256 259 249 239 234 228 222 219 216 205 203 211 204 183 171 181 178 179 167 133 145 28 35 90 115 164 226 219 223 194 202 255 238 225 253 267 314 18 23 333 312 257 262 271 351 20 30 52 73 90 92 89 90 86 89 87 87 89 87
234 234 234 233 232 232 232 234 237 240 242 243 247 252 258 266 268 265 260 252 240 236 256 228 201 199 249 242 249 254 249 230 222 222 218 211 205 199 191 188 187 177 157 146 172 166 158 120 94 143 217 202 187 178 201 213 187 195 181 161 198 235 250 240 246 269 343 343 294 256 246 267 279 340 20 34 69 87 96 98 91 90 89 89 87 86 87 87
231 230 229 227 226 226 227 230 234 237 239 241 246 252 260 268 275 272 258 246 242 243 250 242 224 228 243 264 265 236 218 210 213 218 213 206 199 189 178 170 162 162 154 151 175 156 147 155 181 209 212 209 210 201 196 152 117 136 139 146 195 225 268 256 251 280 195 197 277 256 253 274 280 336 4 22 77 79 82 90 85 87 89 88 89 88 88 89
227 226 225 223 222 223 224 228 232 235 238 238 240 245 245 239 243 280 274 263 263 258 255 255 251 248 249 253 249 224 212 214 219 220 214 202 190 181 178 167 148 165 220 136 121 97 131 179 224 226 217 209 211 195 175 138 120 113 135 236 265 228 260 271 268 301 356 167 265 336 312 279 280 9 6 23 67 57 62 87 86 91 92 91 93 91 93 95
224 224 224 222 222 223 224 228 233 236 238 236 236 237 237 239 248 268 287 286 276 267 260 255 251 250 249 244 241 235 222 223 227 217 208 195 188 188 183 165 149 183 179 108 105 72 124 221 240 231 196 130 109 166 177 198 204 198 148 228 278 243 270 298 323 345 23 156 268 354 324 278 300 52 28 39 66 64 73 96 96 99 99 96 98 98 102 106
225 226 225 224 223 223 225 230 234 237 239 239 240 239 241 249 254 267 280 285 281 272 260 252 247 246 246 242 240 235 226 229 233 220 208 196 190 191 180 163 158 156 141 167 171 163 204 245 248 226 174 148 86 115 137 145 191 202 164 176 251 241 254 282 305 342 15 117 257 344 319 285 306 84 58 56 82 82 82 96 97 102 101 98 102 104 107 108
226 227 228 226 223 223 225 230 234 238 241 241 243 242 245 250 250 268 276 273 283 273 257 248 244 244 243 240 238 232 227 228 230 221 210 197 185 183 187 177 155 150 195 198 182 190 228 236 205 113 144 166 157 110 130 141 219 241 198 197 224 218 211 233 286 332 349 20 23 17 333 293 270 225 117 81 88 80 80 92 92 97 104 106 111 111 110 109
225 227 229 225 223 222 223 230 234 237 239 240 243 240 238 239 239 262 279 286 281 269 256 239 233 239 236 234 231 221 221 227 226 220 207 197 187 174 185 182 165 199 206 172 164 217 249 233 171 94 94 136 140 157 180 166 190 285 229 210 219 215 212 237 337 14 15 352 356 30 343 294 296 265 182 135 76 56 64 79 85 99 112 119 118 114 115 113
224 226 225 223 221 218 219 229 234 234 235 238 239 232 227 218 210 233 144 359 278 236 206 205 205 216 213 214 207 191 202 233 218 212 198 195 195 182 169 167 151 205 180 143 151 223 260 254 205 181 141 138 149 201 220 164 135 292 245 206 211 193 171 185 136 81 78 263 322 44 237 272 297 282 197 145 86 55 55 63 86 116 124 127 123 121 121 117
225 226 225 222 218 216 217 225 230 228 228 236 233 218 210 191 172 153 81 333 271 187 149 169 172 175 187 181 169 163 179 190 179 196 191 190 196 189 184 176 126 184 163 131 153 236 210 32 13 185 153 156 180 223 223 158 129 245 242 154 156 158 167 175 151 159 215 249 327 355 157 262 281 270 241 137 113 65 42 50 105 143 141 138 132 129 127 123
223 223 225 223 220 222 223 223 226 223 222 229 219 201 190 175 170 134 92 277 262 131 133 157 153 160 165 162 161 153 137 142 140 184 185 183 189 183 194 201 168 170 160 142 199 256 139 78 213 175 153 187 207 230 198 163 149 250 217 120 128 143 149 135 125 152 274 34 309 287 151 263 270 274 335 137 164 244 217 215 212 181 163 152 145 139 133 130
226 222 223 223 222 224 225 225 224 220 218 211 194 190 179 165 157 101 82 239 195 104 131 150 144 149 147 152 166 147 117 130 118 163 169 174 184 173 178 194 158 139 128 141 199 239 124 199 206 153 148 206 214 263 192 174 191 196 135 96 76 75 82 82 106 126 59 27 251 233 181 216 275 279 263 194 251 239 203 216 220 195 178 165 157 149 142 136
230 226 222 222 220 217 220 225 224 219 210 195 186 184 172 157 129 104 223 233 153 103 125 147 159 157 144 141 166 163 127 89 106 135 146 160 171 150 123 148 129 122 64 10 217 242 278 173 208 158 172 181 154 97 89 132 150 145 115 65 47 38 42 41 61 95 70 281 251 226 196 192 268 281 224 198 230 187 166 189 212 199 188 178 168 158 150 144
234 230 222 221 221 215 216 222 224 219 205 193 190 180 165 148 104 184 218 222 72 120 119 140 178 151 149 146 159 171 112 65 131 135 132 136 149 129 115 131 105 90 13 331 287 305 332 191 250 202 172 141 112 77 54 69 104 118 91 65 54 348 12 20 357 50 122 251 265 287 253 180 232 261 239 220 226 183 172 181 187 191 190 183 174 167 159 151
236 234 227 224 223 217 216 222 227 219 205 199 194 178 158 143 235 214 213 64 107 193 153 162 184 154 155 121 126 162 121 119 166 138 132 136 153 169 151 163 159 87 339 247 245 341 287 232 267 169 181 169 122 81 53 31 50 86 90 84 72 338 10 1 312 242 215 243 266 331 25 217 237 246 226 210 217 221 219 206 186 182 184 183 178 172 165 157
238 235 233 228 224 221 220 225 227 216 207 205 195 178 151 184 221 204 189 187 206 181 131 124 109 125 141 124 156 173 116 156 184 149 129 114 142 205 235 193 168 129 138 197 184 10 294 297 304 130 215 205 167 131 143 187 118 144 141 120 123 95 59 309 276 282 281 269 273 274 208 234 269 268 213 213 242 265 260 238 200 185 181 180 178 174 170 164
243 238 237 233 229 227 226 228 226 216 211 206 194 174 160 215 217 174 181 204 280 65 91 110 106 106 138 160 211 176 128 202 173 136 115 109 130 210 233 222 188 130 104 140 171 168 169 305 224 174 218 192 181 174 155 141 137 169 156 130 142 144 156 239 238 232 278 291 291 287 188 194 229 238 221 240 276 297 265 222 195 187 183 178 177 177 175 171
247 244 239 234 232 230 231 232 229 223 215 204 187 166 210 215 235 153 178 188 214 78 59 91 111 117 172 236 249 193 188 216 161 127 135 157 167 191 195 206 194 158 133 155 214 158 150 254 252 255 306 160 177 196 121 108 117 194 128 113 150 177 162 192 200 171 181 304 293 233 211 222 197 195 293 282 318 24 144 171 172 179 183 181 182 183 180 177
244 241 234 230 231 231 230 231 230 229 219 201 177 204 214 216 197 187 187 152 162 149 113 89 91 116 190 224 228 225 227 161 149 144 164 185 201 201 202 217 192 183 172 160 193 157 128 261 286 4 17 63 79 178 102 114 180 152 125 173 211 181 128 114 271 69 83 278 274 202 241 286 332 329 327 7 41 58 112 157 166 174 181 184 188 187 184 181
237 233 228 228 233 234 230 230 232 228 215 198 194 221 214 230 188 182 250 146 142 142 135 154 189 152 181 199 195 208 202 129 155 161 171 189 216 194 203 248 190 190 202 180 196 198 139 259 293 89 137 340 44 96 65 47 113 124 178 206 193 134 92 98 250 351 41 252 273 242 224 263 274 269 323 24 274 218 177 173 169 175 183 190 193 191 187 183
236 229 228 229 234 234 230 231 229 219 206 195 220 222 205 219 198 165 241 177 91 97 140 175 189 154 173 187 193 190 175 170 174 169 167 188 234 175 169 215 183 192 215 193 71 228 125 218 294 36 145 290 18 88 63 15 52 116 174 177 117 138 125 88 152 229 246 253 281 298 272 248 211 212 216 211 215 204 191 187 180 186 192 195 196 193 189 187
231 220 220 225 228 230 230 229 219 206 199 201 222 221 194 180 201 188 187 173 105 124 172 194 170 94 167 172 166 176 179 173 166 171 171 171 216 183 158 181 169 201 232 174 155 224 109 139 278 336 173 271 17 82 177 241 26 73 103 51 48 149 164 156 151 174 210 248 282 297 303 275 229 202 181 201 205 184 179 191 197 199 196 196 196 193 192 191
216 206 211 220 220 225 227 220 204 198 200 219 210 216 196 172 199 186 169 162 155 164 192 197 160 135 170 178 170 172 169 160 159 171 193 167 179 200 190 167 136 141 170 132 144 139 85 133 239 313 332 215 179 214 191 181 161 113 117 117 273 128 115 223 237 127 147 190 231 275 282 271 251 194 181 206 207 182 184 190 196 200 198 198 197 194 193 191
203 202 226 211 213 218 211 197 191 194 207 242 212 171 184 185 172 177 171 156 126 89 130 155 155 156 155 153 193 177 142 148 162 166 191 186 176 187 201 169 147 145 109 99 140 184 133 153 171 184 287 198 224 259 208 188 176 156 179 196 186 162 120 212 256 214 118 178 187 215 267 271 256 192 190 210 208 195 197 194 194 200 200 199 199 196 194 191
196 203 213 196 197 196 187 176 185 182 175 218 210 119 171 162 134 168 171 149 125 51 63 94 115 148 150 155 171 159 132 138 175 170 172 196 197 185 176 151 149 148 120 114 191 190 119 110 139 201 209 214 253 293 156 188 133 130 184 193 158 148 141 186 235 232 150 222 156 136 260 273 256 208 222 234 231 216 207 204 206 207 205 204 202 199 196 195
188 186 190 187 180 175 173 171 248 183 176 176 141 83 79 122 138 160 161 157 136 70 70 71 194 153 167 172 148 149 156 150 174 181 176 190 199 207 164 145 145 135 116 132 187 141 100 97 143 278 304 314 315 339 81 67 68 122 245 138 139 168 164 194 222 181 166 223 150 100 256 262 266 215 232 243 231 212 204 206 210 211 210 209 206 202 201 201
175 166 167 179 176 172 174 182 189 197 207 121 134 114 41 28 170 141 150 159 143 124 117 85 22 45 19 76 117 162 190 177 169 178 181 181 171 135 115 139 160 153 118 166 171 163 174 131 126 216 316 326 330 342 344 352 17 204 252 227 167 132 99 93 151 119 221 216 166 189 251 247 250 329 32 67 148 172 199 205 207 209 209 208 205 203 205 207
156 139 149 175 180 185 192 161 138 183 176 131 140 155 115 5 297 176 148 133 129 132 129 104 54 73 72 48 66 134 192 169 161 159 136 156 144 97 77 87 178 170 100 139 152 154 170 168 136 162 229 249 246 227 226 265 260 196 224 233 214 170 154 163 151 178 231 203 152 209 248 252 293 335 24 40 119 157 206 208 209 213 212 208 206 206 208 210
152 140 144 172 189 207 222 180 140 140 161 160 152 154 161 184 309 187 155 143 122 111 102 89 62 65 82 117 91 152 233 34 102 137 142 181 241 4 43 50 109 140 111 125 135 127 123 183 180 180 213 229 218 215 206 148 146 198 224 222 219 207 192 183 161 193 213 179 184 228 234 267 288 261 212 223 204 198 217 209 207 213 214 210 208 209 212 214
156 186 158 154 198 226 242 218 172 139 151 184 178 173 178 179 218 218 169 178 173 149 130 158 175 165 187 166 145 199 217 183 148 164 157 175 227 321 32 63 83 117 128 130 136 113 100 231 216 198 225 232 187 192 194 148 173 201 218 237 230 206 176 188 221 219 170 175 238 241 170 160 255 251 201 205 222 220 224 217 213 216 216 211 208 211 216 219
160 183 170 161 169 197 223 215 176 144 137 189 184 165 179 182 185 186 181 159 155 166 168 196 200 200 190 163 158 176 186 196 208 190 158 130 152 51 23 27 50 105 128 120 127 118 124 230 220 186 226 231 163 182 189 165 205 224 226 244 244 215 183 196 229 230 197 219 252 260 137 206 248 255 180 200 216 221 230 231 229 226 220 212 209 214 220 223
163 140 171 174 167 175 189 174 160 159 170 168 175 200 189 192 192 176 139 108 135 193 189 190 204 200 193 176 171 178 184 187 193 180 159 156 165 137 98 285 290 104 113 106 114 129 142 225 206 166 230 243 188 191 182 169 218 254 244 247 248 232 209 209 226 230 219 239 264 314 302 256 251 202 183 221 231 238 249 249 241 232 222 215 216 221 226 230
186 181 167 165 150 114 154 154 152 168 179 167 195 211 184 190 194 174 135 153 154 196 204 209 202 181 188 193 194 215 213 183 180 190 164 163 192 183 194 206 165 123 113 127 77 167 167 213 112 125 235 272 217 148 141 163 199 238 257 255 242 198 218 229 230 232 237 263 271 284 275 271 256 155 179 253 261 252 254 252 244 236 227 224 230 236 240 245
207 197 168 155 157 153 158 158 150 157 183 187 199 188 177 204 195 163 175 203 193 177 189 205 200 163 184 202 210 227 221 188 204 217 187 186 201 192 198 191 152 143 158 169 166 157 174 210 47 104 210 264 218 149 135 104 87 260 261 255 232 184 222 232 202 188 208 229 251 259 258 263 250 128 177 251 249 239 243 247 248 248 242 238 243 249 256 264
212 205 185 166 163 171 168 152 145 172 205 197 192 185 182 196 176 157 180 222 207 203 203 201 190 164 187 209 218 232 228 206 224 234 207 206 214 201 204 195 170 162 164 165 168 152 159 160 113 148 212 248 182 152 136 95 28 265 255 244 219 215 233 234 179 204 211 203 213 236 246 255 233 141 218 251 240 231 241 246 248 250 249 248 253 259 267 273